Tracking 32139 objects as of 18-Nov-2025
HD Live streaming from Space Station
objects crossing your sky now

STARLINK-34839

Track STARLINK-34839 now!
10-day predictions
STARLINK-34839 is classified as:


NORAD ID: 65703
Int'l Code: 2025-212AD
Perigee: 481.3 km
Apogee: 483.4 km
Inclination: 53.2 °
Period: 94.1 minutes
Semi major axis: 6853 km
RCS: Unknown
Launch date: September 21, 2025
Source: United States (US)
Launch site: AIR FORCE WESTERN TEST RANGE (AFWTR)
Your satellite tracking list
Your tracking list is empty




NASA's NSSDC Master Catalog

Two Line Element Set (TLE):
1 65703U 25212AD  25321.78989036  .00005968  00000-0  21350-3 0  9998
2 65703  53.1587 145.2588 0001511  87.5475 272.5699 15.30193620 10112
Source of the keplerian elements: AFSPC